DELTA 4 R/B, 35492

Orbit data source: Space-Track

DELTA 4 R/B, 35492 is space debris in HEO originally from a launch on Sat, 27 Jun 2009 UTC launched from the Air Force Eastern Test Range (AFETR). Debris objects in space refer to the collection of defunct objects orbiting the Earth. Examples of debris include non-operational satellites, rocket bodies, and fragments generated from explosions, collisions, or faulty payload assembly.

Loading next visibility...
Identifier
35492, 2009-033B
Orbit
HEO
Country
Flag of USUS
Related business
Flag of USUnited Launch Alliance/Lockheed Martin (US)
Manufacturer
ULA Decatur
Mission
Spacecraft
Bus & Motor
DCSS-4, RL10B-2
Mass
2,850 kg wet, 2,850 kg dry
Launch date (UTC)
2009-06-27 (17 years ago)
Launch vehicle
Unknown
Launch site
Air Force Eastern Test Range (AFETR)
Object type
Payload
Rocket body
Debris
Shape & HBR
Cyl + 1 Nozzle, 6.0 m
Radar Cross Section
43.982 m², Large (>1 m²)

Expand to show TLE details & history
Last TLE update: 4 weeks ago

TLE from 4 weeks ago
0 DELTA 4 R/B
1 35492U 09033B   26212.26503120  .00000022  00000-0  00000-0 0  9994
2 35492  13.2961  75.2403 5229299 140.8554 297.7772  1.93161432120614
Epoch: 2026-07-31T06:21Z
TLE epoch observation values (Epoch: 2026-07-31T06:21:38.695Z)
Latitude
3.99833°
Longitude
48.12134°
Altitude
21,366.978 km
Speed
3.755 km/s
True Right ascension
06h 09m 42s
True Declination
3° 59' 32"
Sunlit
Object was in daylight at epoch
Visualization orbit readout
Latitude
Unknown
Longitude
Unknown
Altitude
Unknown
Speed
Unknown
Apparent Right ascension
Unknown
Apparent Declination
Unknown
Sunlit
N/A
Visualization observer readout
Local Sidereal Time
06:13:39
Azimuth
Unknown
Elevation
Unknown
Doppler factor
Unknown
Orbital elements
Apogee altitude
35,101.99 km
Perigee altitude
6,615.848 km
Semi-major axis
27,237.056 km
Eccentricity
0.52293
Inclination
13.2961°
RAAN
75.2403°
Arg. of periapsis
140.8554°
True anomaly
236.64518°
Mean anomaly
297.7772°
Eccentric anomaly
267.83687°
Mean motion
0.48284 °/min
Orbital period
745.59 mins
BSTAR
0
Loading maneuver chart data...
Computing Atmospheric mass density...
Loading historical data...
Loading historical data...
Loading historical data...
Loading historical data...
Loading historical data...
Loading historical data...
Loading historical data...
Other satellites on launch #33 in the year 2009 (2009-06-27 UTC)

Documentation

Showing up to 5 results
|